Location: Unspecified
(0.0000°N, 0.0000°E)
Time: 13:38:42
(UTC+00:00)

LightSail 2 - Pass Details

Date: 19 November 2019
Orbit: 696 x 730 km, 24.0° (Epoch: 08 December)

Event Time Altitude Azimuth Distance (km) Brightness Sun altitude
Rises 18:38:54 0° 231° (SW) 3,067 9.9 -12.6°
Reaches altitude 10° 18:41:28 10° 223° (SW) 2,145 8.7 -13.2°
Maximum altitude 18:46:09 38° 155° (SSE) 1,050 6.0 -14.3°
Enters shadow 18:49:08 20° 98° (E) 1,585 6.4 -15.0°
